Time,TemperatureF,DewpointF,PressureIn,WindDirection,WindDirectionDegrees,WindSpeedMPH,WindSpeedGustMPH,Humidity,HourlyPrecipIn,Conditions,Clouds,dailyrainin,SoftwareType,DateUTC
2013-07-10 00:03:00,79.0,72.0,30.09,SSE,147,0.0,2.0,80,0.00,,,0.00,weatherlink.com 1.10,2013-07-10 05:03:00,
2013-07-10 00:18:00,78.5,72.0,30.09,SSE,147,0.0,1.0,80,0.00,,,0.00,weatherlink.com 1.10,2013-07-10 05:18:00,
2013-07-10 00:33:00,78.2,72.0,30.09,SSE,147,0.0,1.0,81,0.00,,,0.00,weatherlink.com 1.10,2013-07-10 05:33:00,
2013-07-10 00:48:00,77.8,72.0,30.09,SSE,147,0.0,1.0,82,0.00,,,0.00,weatherlink.com 1.10,2013-07-10 05:48:00,
2013-07-10 01:03:00,77.4,72.0,30.09,SSE,147,0.0,1.0,83,0.00,,,0.00,weatherlink.com 1.10,2013-07-10 06:03:00,
2013-07-10 01:18:00,77.1,72.0,30.09,SSE,147,0.0,1.0,84,0.00,,,0.00,weatherlink.com 1.10,2013-07-10 06:18:00,
2013-07-10 01:33:00,76.7,72.0,30.09,SSE,147,0.0,1.0,84,0.00,,,0.00,weatherlink.com 1.10,2013-07-10 06:33:00,
2013-07-10 01:48:00,76.3,72.0,30.09,SSE,147,0.0,1.0,85,0.00,,,0.00,weatherlink.com 1.10,2013-07-10 06:48:00,
2013-07-10 02:03:00,76.0,72.0,30.09,SSE,147,0.0,0.0,86,0.00,,,0.00,weatherlink.com 1.10,2013-07-10 07:03:00,
2013-07-10 02:18:00,75.8,72.0,30.09,SSE,147,0.0,0.0,87,0.00,,,0.00,weatherlink.com 1.10,2013-07-10 07:18:00,
2013-07-10 02:33:00,75.6,72.0,30.09,SSE,147,0.0,1.0,87,0.00,,,0.00,weatherlink.com 1.10,2013-07-10 07:33:00,
2013-07-10 02:48:00,75.3,72.0,30.09,SSE,147,0.0,0.0,88,0.00,,,0.00,weatherlink.com 1.10,2013-07-10 07:48:00,
2013-07-10 03:03:00,75.2,72.0,30.09,SSE,147,0.0,0.0,88,0.00,,,0.00,weatherlink.com 1.10,2013-07-10 08:03:00,
2013-07-10 03:18:00,74.9,72.0,30.09,SSE,147,0.0,0.0,89,0.00,,,0.00,weatherlink.com 1.10,2013-07-10 08:18:00,
2013-07-10 03:33:00,74.8,71.0,30.09,SSE,147,0.0,0.0,89,0.00,,,0.00,weatherlink.com 1.10,2013-07-10 08:33:00,
2013-07-10 03:48:00,74.6,72.0,30.09,SSE,147,0.0,0.0,90,0.00,,,0.00,weatherlink.com 1.10,2013-07-10 08:48:00,
2013-07-10 04:03:00,74.3,71.0,30.09,SSE,147,0.0,0.0,90,0.00,,,0.00,weatherlink.com 1.10,2013-07-10 09:03:00,
2013-07-10 04:18:00,74.2,71.0,30.09,SSE,147,0.0,0.0,90,0.00,,,0.00,weatherlink.com 1.10,2013-07-10 09:18:00,
2013-07-10 04:33:00,74.0,71.0,30.09,SSE,147,0.0,0.0,90,0.00,,,0.00,weatherlink.com 1.10,2013-07-10 09:33:00,
2013-07-10 04:48:00,73.6,71.0,30.09,SSE,147,0.0,0.0,90,0.00,,,0.00,weatherlink.com 1.10,2013-07-10 09:48:00,
2013-07-10 05:03:00,73.3,71.0,30.09,SSE,147,0.0,0.0,91,0.00,,,0.00,weatherlink.com 1.10,2013-07-10 10:03:00,
2013-07-10 05:18:00,73.3,71.0,30.09,SSE,147,0.0,0.0,91,0.00,,,0.00,weatherlink.com 1.10,2013-07-10 10:18:00,
2013-07-10 05:33:00,73.3,71.0,30.09,SSE,147,0.0,0.0,91,0.00,,,0.00,weatherlink.com 1.10,2013-07-10 10:33:00,
2013-07-10 05:48:00,73.2,71.0,30.09,SSE,147,0.0,0.0,92,0.00,,,0.00,weatherlink.com 1.10,2013-07-10 10:48:00,
2013-07-10 06:03:00,73.0,70.0,30.09,SSE,147,0.0,0.0,91,0.00,,,0.00,weatherlink.com 1.10,2013-07-10 11:03:00,
2013-07-10 06:18:00,72.9,71.0,30.09,SSE,147,0.0,0.0,92,0.00,,,0.00,weatherlink.com 1.10,2013-07-10 11:18:00,
2013-07-10 06:33:00,73.1,71.0,30.09,SSE,147,0.0,0.0,92,0.00,,,0.00,weatherlink.com 1.10,2013-07-10 11:33:00,
2013-07-10 06:48:00,73.0,71.0,30.09,SSE,147,0.0,0.0,92,0.00,,,0.00,weatherlink.com 1.10,2013-07-10 11:48:00,
2013-07-10 07:03:00,73.0,71.0,30.09,SSE,147,0.0,0.0,92,0.00,,,0.00,weatherlink.com 1.10,2013-07-10 12:03:00,
2013-07-10 07:18:00,73.3,71.0,30.10,SSE,147,0.0,0.0,92,0.00,,,0.00,weatherlink.com 1.10,2013-07-10 12:18:00,
2013-07-10 07:33:00,73.6,71.0,30.10,SSE,147,0.0,0.0,92,0.00,,,0.00,weatherlink.com 1.10,2013-07-10 12:33:00,
2013-07-10 07:48:00,74.3,72.0,30.10,SSE,147,0.0,0.0,93,0.00,,,0.00,weatherlink.com 1.10,2013-07-10 12:48:00,
2013-07-10 08:03:00,75.1,73.0,30.10,SSE,147,0.0,0.0,93,0.00,,,0.00,weatherlink.com 1.10,2013-07-10 13:03:00,
2013-07-10 08:18:00,76.1,74.0,30.11,SSE,147,1.0,1.0,93,0.00,,,0.00,weatherlink.com 1.10,2013-07-10 13:18:00,
2013-07-10 08:33:00,77.6,75.0,30.11,SSE,148,0.0,2.0,92,0.00,,,0.00,weatherlink.com 1.10,2013-07-10 13:33:00,
2013-07-10 08:48:00,79.6,76.0,30.11,SSE,151,2.0,3.0,87,0.00,,,0.00,weatherlink.com 1.10,2013-07-10 13:48:00,
2013-07-10 09:03:00,82.0,76.0,30.11,South,186,0.0,3.0,81,0.00,,,0.00,weatherlink.com 1.10,2013-07-10 14:03:00,
2013-07-10 09:18:00,82.9,75.0,30.11,SSW,196,0.0,2.0,78,0.00,,,0.00,weatherlink.com 1.10,2013-07-10 14:18:00,
2013-07-10 09:33:00,84.4,76.0,30.11,SE,134,0.0,3.0,76,0.00,,,0.00,weatherlink.com 1.10,2013-07-10 14:33:00,
2013-07-10 09:49:00,85.7,75.0,30.11,SSE,167,3.0,3.0,71,0.00,,,0.00,weatherlink.com 1.10,2013-07-10 14:49:00,
2013-07-10 10:04:00,86.9,75.0,30.11,SW,223,2.0,4.0,68,0.00,,,0.00,weatherlink.com 1.10,2013-07-10 15:04:00,
2013-07-10 10:19:00,86.7,75.0,30.11,WNW,302,0.0,6.0,68,0.00,,,0.00,weatherlink.com 1.10,2013-07-10 15:19:00,
2013-07-10 10:34:00,88.6,75.0,30.11,SSW,204,7.0,7.0,64,0.00,,,0.00,weatherlink.com 1.10,2013-07-10 15:34:00,
2013-07-10 10:49:00,88.2,75.0,30.10,SSE,165,0.0,3.0,64,0.00,,,0.00,weatherlink.com 1.10,2013-07-10 15:49:00,
2013-07-10 11:04:00,88.7,75.0,30.10,NW,315,0.0,2.0,64,0.00,,,0.00,weatherlink.com 1.10,2013-07-10 16:04:00,
2013-07-10 11:19:00,91.0,74.0,30.10,South,169,3.0,4.0,58,0.00,,,0.00,weatherlink.com 1.10,2013-07-10 16:19:00,
2013-07-10 11:34:00,91.5,74.0,30.09,ENE,78,1.0,3.0,57,0.00,,,0.00,weatherlink.com 1.10,2013-07-10 16:34:00,
2013-07-10 11:49:00,91.6,75.0,30.09,SE,140,0.0,6.0,59,0.00,,,0.00,weatherlink.com 1.10,2013-07-10 16:49:00,
2013-07-10 12:04:00,92.4,74.0,30.09,SSE,154,1.0,5.0,55,0.00,,,0.00,weatherlink.com 1.10,2013-07-10 17:04:00,
2013-07-10 12:19:00,92.5,75.0,30.09,SW,223,1.0,3.0,57,0.00,,,0.00,weatherlink.com 1.10,2013-07-10 17:19:00,
2013-07-10 12:34:00,93.6,74.0,30.08,SE,146,3.0,3.0,53,0.00,,,0.00,weatherlink.com 1.10,2013-07-10 17:34:00,
2013-07-10 12:49:00,93.5,73.0,30.07,South,176,2.0,7.0,52,0.00,,,0.00,weatherlink.com 1.10,2013-07-10 17:49:00,
2013-07-10 13:04:00,94.2,73.0,30.07,ESE,104,2.0,7.0,50,0.00,,,0.00,weatherlink.com 1.10,2013-07-10 18:04:00,
2013-07-10 13:19:00,93.4,72.0,30.07,ESE,121,1.0,7.0,50,0.00,,,0.00,weatherlink.com 1.10,2013-07-10 18:19:00,
2013-07-10 13:34:00,93.9,74.0,30.07,West,270,0.0,5.0,53,0.00,,,0.00,weatherlink.com 1.10,2013-07-10 18:34:00,
2013-07-10 13:49:00,94.9,73.0,30.06,SSE,159,0.0,4.0,49,0.00,,,0.00,weatherlink.com 1.10,2013-07-10 18:49:00,
2013-07-10 14:04:00,93.9,74.0,30.05,SE,136,0.0,4.0,53,0.00,,,0.00,weatherlink.com 1.10,2013-07-10 19:04:00,
2013-07-10 14:19:00,97.1,75.0,30.05,SSW,201,1.0,3.0,49,0.00,,,0.00,weatherlink.com 1.10,2013-07-10 19:19:00,
2013-07-10 14:34:00,95.9,73.0,30.04,ESE,115,3.0,7.0,47,0.00,,,0.00,weatherlink.com 1.10,2013-07-10 19:34:00,
2013-07-10 14:49:00,96.1,73.0,30.04,SSE,155,1.0,5.0,48,0.00,,,0.00,weatherlink.com 1.10,2013-07-10 19:49:00,
2013-07-10 15:04:00,95.7,72.0,30.03,SSW,209,0.0,4.0,47,0.00,,,0.00,weatherlink.com 1.10,2013-07-10 20:04:00,
2013-07-10 15:19:00,97.2,72.0,30.02,SE,136,0.0,4.0,44,0.00,,,0.00,weatherlink.com 1.10,2013-07-10 20:19:00,
2013-07-10 15:34:00,98.1,72.0,30.02,SSE,162,0.0,4.0,43,0.00,,,0.00,weatherlink.com 1.10,2013-07-10 20:34:00,
2013-07-10 15:49:00,96.2,72.0,30.01,SSE,165,1.0,2.0,45,0.00,,,0.00,weatherlink.com 1.10,2013-07-10 20:49:00,
2013-07-10 16:04:00,97.3,72.0,30.00,SSE,152,0.0,4.0,44,0.00,,,0.00,weatherlink.com 1.10,2013-07-10 21:04:00,
2013-07-10 16:19:00,95.9,72.0,30.00,SSE,164,0.0,1.0,46,0.00,,,0.00,weatherlink.com 1.10,2013-07-10 21:19:00,
2013-07-10 16:34:00,97.7,72.0,29.99,SSW,194,1.0,3.0,43,0.00,,,0.00,weatherlink.com 1.10,2013-07-10 21:34:00,
2013-07-10 16:49:00,98.6,72.0,29.98,SSE,148,0.0,4.0,42,0.00,,,0.00,weatherlink.com 1.10,2013-07-10 21:49:00,
2013-07-10 17:04:00,97.5,71.0,29.98,SE,128,1.0,5.0,43,0.00,,,0.00,weatherlink.com 1.10,2013-07-10 22:04:00,
2013-07-10 17:19:00,96.5,71.0,29.97,South,175,0.0,3.0,44,0.00,,,0.00,weatherlink.com 1.10,2013-07-10 22:19:00,
2013-07-10 17:35:00,96.3,72.0,29.95,South,178,2.0,3.0,45,0.00,,,0.00,weatherlink.com 1.10,2013-07-10 22:35:00,
2013-07-10 17:50:00,95.4,70.0,29.95,South,171,0.0,4.0,44,0.00,,,0.00,weatherlink.com 1.10,2013-07-10 22:50:00,
2013-07-10 18:05:00,95.1,69.0,29.95,SE,136,0.0,4.0,43,0.00,,,0.00,weatherlink.com 1.10,2013-07-10 23:05:00,
2013-07-10 18:20:00,94.4,69.0,29.95,SSE,163,0.0,4.0,44,0.00,,,0.00,weatherlink.com 1.10,2013-07-10 23:20:00,
2013-07-10 18:35:00,93.4,74.0,29.95,South,169,0.0,1.0,54,0.00,,,0.00,weatherlink.com 1.10,2013-07-10 23:35:00,
2013-07-10 18:50:00,91.5,73.0,29.95,South,169,0.0,1.0,55,0.00,,,0.00,weatherlink.com 1.10,2013-07-10 23:50:00,
2013-07-10 19:05:00,89.9,73.0,29.95,South,169,0.0,0.0,57,0.00,,,0.00,weatherlink.com 1.10,2013-07-11 00:05:00,
2013-07-10 19:20:00,88.9,72.0,29.95,SSE,168,0.0,1.0,58,0.00,,,0.00,weatherlink.com 1.10,2013-07-11 00:20:00,
2013-07-10 19:35:00,88.3,73.0,29.95,SSE,168,0.0,0.0,60,0.00,,,0.00,weatherlink.com 1.10,2013-07-11 00:35:00,
2013-07-10 19:50:00,87.5,72.0,29.95,SSE,168,0.0,0.0,61,0.00,,,0.00,weatherlink.com 1.10,2013-07-11 00:50:00,
2013-07-10 20:05:00,86.9,73.0,29.95,SSE,168,0.0,0.0,63,0.00,,,0.00,weatherlink.com 1.10,2013-07-11 01:05:00,
2013-07-10 20:20:00,86.2,73.0,29.96,SSE,168,0.0,0.0,65,0.00,,,0.00,weatherlink.com 1.10,2013-07-11 01:20:00,
2013-07-10 20:35:00,85.7,73.0,29.96,SSE,168,0.0,0.0,66,0.00,,,0.00,weatherlink.com 1.10,2013-07-11 01:35:00,
2013-07-10 20:50:00,85.1,72.0,29.96,SSE,168,0.0,1.0,66,0.00,,,0.00,weatherlink.com 1.10,2013-07-11 01:50:00,
2013-07-10 21:05:00,85.1,72.0,29.96,SSE,168,0.0,1.0,66,0.00,,,0.00,weatherlink.com 1.10,2013-07-11 02:05:00,
2013-07-10 21:20:00,84.9,72.0,29.97,SSE,168,0.0,0.0,66,0.00,,,0.00,weatherlink.com 1.10,2013-07-11 02:20:00,
2013-07-10 21:35:00,84.5,72.0,29.97,SSE,168,0.0,1.0,67,0.00,,,0.00,weatherlink.com 1.10,2013-07-11 02:35:00,
2013-07-10 21:50:00,84.0,72.0,29.97,SSE,168,0.0,1.0,68,0.00,,,0.00,weatherlink.com 1.10,2013-07-11 02:50:00,
2013-07-10 22:05:00,83.4,72.0,29.97,SSE,168,0.0,1.0,69,0.00,,,0.00,weatherlink.com 1.10,2013-07-11 03:05:00,
2013-07-10 22:20:00,82.8,72.0,29.98,SSE,168,1.0,1.0,70,0.00,,,0.00,weatherlink.com 1.10,2013-07-11 03:20:00,
2013-07-10 22:35:00,82.4,72.0,29.98,SSE,168,1.0,2.0,71,0.00,,,0.00,weatherlink.com 1.10,2013-07-11 03:35:00,
2013-07-10 22:50:00,81.9,72.0,29.98,SSE,168,0.0,1.0,72,0.00,,,0.00,weatherlink.com 1.10,2013-07-11 03:50:00,
2013-07-10 23:05:00,81.4,72.0,29.99,SSE,168,0.0,1.0,73,0.00,,,0.00,weatherlink.com 1.10,2013-07-11 04:05:00,
2013-07-10 23:20:00,80.9,72.0,29.99,SSE,168,0.0,2.0,74,0.00,,,0.00,weatherlink.com 1.10,2013-07-11 04:20:00,
2013-07-10 23:35:00,80.5,72.0,29.99,SE,131,0.0,3.0,74,0.00,,,0.00,weatherlink.com 1.10,2013-07-11 04:35:00,
2013-07-10 23:50:00,80.2,72.0,29.99,SE,131,0.0,2.0,75,0.00,,,0.00,weatherlink.com 1.10,2013-07-11 04:50:00,